DateTimeUTC,F1_A11,F1_S11,BsB_S11,BsG_S11,BsR_S11,BbsB_S11,BbsG_S11,BbsR_S11,BaB_A11,BaG_A11,BaR_A11,Tu_S11,T_S11,Uu_S11,U_S11,P_S11,T1_A11
2021-06-01T07:00:00Z,00000200,21000000,,,,,,,-000.01,-000.27,-000.44,16.4,23.7,00.9,00.6,0661.9,30.9
2021-06-01T07:01:00Z,00000200,21000000,,,,,,,-000.20,0000.20,-000.06,16.4,23.7,00.7,00.4,0661.9,30.9
2021-06-01T07:02:00Z,00000200,21000000,,,,,,,0000.16,-000.19,0000.41,16.4,23.7,00.6,00.4,0661.9,30.9
2021-06-01T07:03:00Z,00000200,61000000,,,,,,,0000.11,0000.27,0000.30,16.4,23.7,00.6,00.4,0661.9,30.9
2021-06-01T07:04:00Z,00000200,41000000,0001.21,0000.49,0000.23,-000.26,0000.41,0000.01,0000.44,0000.54,0000.24,16.7,23.5,00.8,00.5,0662.8,30.9
2021-06-01T07:05:00Z,00000200,01000000,0000.62,0000.30,0000.44,-000.06,0000.18,0000.20,0000.39,-000.03,-000.04,16.7,23.5,00.8,00.5,0662.9,30.9
2021-06-01T07:06:00Z,00000200,01000000,0000.65,0000.49,0000.43,0000.21,0000.26,0000.06,-000.09,0000.00,0000.28,16.8,23.5,00.8,00.5,0662.9,30.9
2021-06-01T07:07:00Z,00000200,01000000,0001.03,0000.54,0000.16,0000.29,0000.09,-000.11,0000.21,0000.11,-000.15,16.8,23.5,00.8,00.5,0662.9,30.9
2021-06-01T07:08:00Z,00000200,01000000,0000.67,0000.37,0000.22,-000.04,0000.16,0000.11,0000.17,-000.10,0000.10,16.8,23.4,00.7,00.4,0662.9,30.9
2021-06-01T07:09:00Z,00000200,01000000,0000.56,0000.54,0000.32,0000.47,-000.05,0000.19,0000.00,0000.26,0000.36,16.8,23.4,00.6,00.4,0662.9,30.9
2021-06-01T07:10:00Z,00000200,01000000,0000.41,0000.61,0000.62,-000.41,0000.46,0000.42,0000.14,0000.43,0000.02,16.8,23.4,00.5,00.3,0662.9,30.9
2021-06-01T07:11:00Z,00000200,01000000,0000.93,0000.65,0000.16,-000.05,0000.07,0000.12,0000.18,-000.02,0000.09,16.8,23.4,00.6,00.4,0662.9,30.9
2021-06-01T07:12:00Z,00000200,01000000,0001.59,0000.69,0000.46,0000.53,0000.05,0000.15,0000.29,0000.40,0000.10,16.8,23.4,00.6,00.4,0662.9,30.9
2021-06-01T07:13:00Z,00000200,01000000,0000.67,0000.69,0000.40,-000.29,0000.15,0000.25,0000.34,0000.13,0000.32,16.8,23.4,00.6,00.4,0662.9,30.9
2021-06-01T07:14:00Z,00000200,01000000,0000.95,0000.45,0000.23,-000.04,0000.18,0000.11,0000.76,0000.73,0000.33,16.7,23.4,00.6,00.4,0662.9,30.9
2021-06-01T07:15:00Z,00000200,01000000,0000.95,0000.70,0000.19,0000.33,0000.10,0000.07,0000.45,0000.46,0000.46,16.8,23.4,00.8,00.6,0662.9,30.9
2021-06-01T07:16:00Z,00000200,01000000,0000.91,0000.45,0000.12,0000.01,-000.07,0000.05,0000.21,0000.57,0000.24,16.7,23.4,01.0,00.7,0662.9,30.9
2021-06-01T07:17:00Z,00000200,01000000,0000.92,0000.68,0000.29,0000.37,0000.16,0000.20,0000.67,0000.36,0000.35,16.8,23.4,01.2,00.8,0662.9,30.9
2021-06-01T07:18:00Z,00000200,01000000,0001.60,0000.84,0000.25,-000.13,0000.23,0000.24,0000.46,0000.48,0000.43,16.8,23.4,01.2,00.8,0662.9,30.9
2021-06-01T07:19:00Z,00000200,01000000,0000.99,0000.71,0000.42,0000.23,0000.16,-000.11,0000.09,-000.18,0000.24,16.9,23.4,01.2,00.8,0662.9,30.9
2021-06-01T07:20:00Z,00000200,01000000,0001.37,0000.86,0000.22,0000.44,0000.23,0000.23,0000.18,0000.57,0000.11,16.9,23.4,01.1,00.8,0662.9,30.9
2021-06-01T07:21:00Z,00000200,01000000,0001.30,0000.95,0000.46,0000.60,0000.21,-000.02,0000.25,-000.02,-000.31,16.9,23.4,01.1,00.7,0663.0,30.9
2021-06-01T07:22:00Z,00000200,01000000,0000.92,0000.82,0000.42,0000.02,-000.02,0000.18,0000.48,0000.55,0000.72,16.9,23.4,01.2,00.8,0663.0,30.9
2021-06-01T07:23:00Z,00000200,01000000,0001.83,0000.89,0000.45,0000.57,0000.26,0000.17,0000.29,0000.01,-000.03,16.9,23.5,01.2,00.8,0663.0,30.9
2021-06-01T07:24:00Z,00000200,01000000,0001.92,0000.44,0000.07,0000.63,0000.19,-000.01,0000.05,0000.11,-000.10,16.9,23.5,01.2,00.8,0662.9,30.9
2021-06-01T07:25:00Z,00000200,01000000,0000.76,0000.90,-000.13,0000.30,-000.01,-000.21,0000.33,0000.28,0000.39,16.9,23.4,01.2,00.8,0662.9,30.9
2021-06-01T07:26:00Z,00000200,01000000,0001.17,0000.60,0000.36,-000.29,0000.16,0000.41,0000.22,0000.63,0000.30,16.9,23.4,01.2,00.8,0662.9,30.9
2021-06-01T07:27:00Z,00000200,01000000,0001.21,0000.68,0000.22,0000.07,0000.16,0000.13,0000.51,0000.16,0000.37,16.9,23.4,01.2,00.8,0662.9,30.9
2021-06-01T07:28:00Z,00000200,01000000,0001.19,0000.17,0000.21,-000.29,0000.10,0000.30,-000.14,-000.38,-000.03,16.8,23.4,01.3,00.8,0663.0,30.9
2021-06-01T07:29:00Z,00000200,01000000,0000.97,0000.71,0000.53,0000.82,0000.03,0000.06,0000.02,0000.20,-000.14,16.8,23.4,01.2,00.8,0663.0,30.9
2021-06-01T07:30:00Z,00000200,01000000,0000.51,0000.49,0000.24,0000.10,0000.39,0000.19,0000.02,0000.36,0000.21,16.8,23.4,01.0,00.7,0663.0,30.9
2021-06-01T07:31:00Z,00000200,01000000,0001.30,0000.74,0000.17,0000.60,0000.14,-000.06,0000.22,0000.05,-000.06,16.8,23.4,01.1,00.7,0663.0,30.9
2021-06-01T07:32:00Z,00000200,01000000,0000.78,0000.66,0000.55,-000.11,0000.30,-000.05,0000.55,-000.04,0000.25,16.8,23.4,01.0,00.7,0663.0,30.9
2021-06-01T07:33:00Z,00000200,01000000,0001.12,0000.54,0000.75,0000.03,0000.43,0000.16,0000.18,0000.63,0000.20,16.8,23.4,00.9,00.6,0663.0,30.9
2021-06-01T07:34:00Z,00000200,01000000,0000.86,0000.92,0000.42,0000.36,0000.25,0000.14,0000.69,0000.48,0000.27,16.8,23.4,01.1,00.7,0663.0,30.9
2021-06-01T07:35:00Z,00000200,01000000,0000.80,0001.18,0000.30,0000.03,0000.01,0000.05,0000.29,0000.18,0000.30,16.7,23.4,01.2,00.8,0663.0,30.9
2021-06-01T07:36:00Z,00000200,01000000,0001.56,0000.46,0000.32,-000.19,0000.14,0000.39,0000.71,0000.92,0000.89,16.7,23.3,01.3,00.9,0663.0,30.9
2021-06-01T07:37:00Z,00000200,01000000,0000.97,0000.74,0000.26,-000.08,0000.22,-000.01,0000.69,0000.45,0000.20,16.7,23.3,01.5,01.0,0663.0,30.9
2021-06-01T07:38:00Z,00000200,01000000,0001.20,0000.73,0000.32,0000.08,0000.12,0000.06,-000.10,-000.07,0000.10,16.7,23.3,01.6,01.1,0663.0,30.9
2021-06-01T07:39:00Z,00000200,01000000,0001.56,0000.53,0000.26,0000.17,0000.21,0000.20,0000.24,0000.23,0000.02,16.7,23.3,01.5,01.0,0663.0,30.9
2021-06-01T07:40:00Z,00000200,01000000,0001.51,0000.86,0000.18,0000.20,0000.14,0000.12,0000.07,-000.03,-000.04,16.7,23.3,01.4,01.0,0663.0,30.9
2021-06-01T07:41:00Z,00000200,01000000,0000.71,0001.07,0000.31,-000.10,-000.07,0000.05,0000.13,0000.09,0000.04,16.7,23.3,01.4,00.9,0663.0,30.9
2021-06-01T07:42:00Z,00000200,01000000,0000.65,0000.71,0000.52,-000.05,-000.07,0000.32,0000.33,0000.51,0000.37,16.7,23.3,01.3,00.8,0663.0,30.9
2021-06-01T07:43:00Z,00000200,01000000,0001.33,0000.66,0000.24,0000.48,0000.12,0000.12,0000.21,-000.15,0000.15,16.7,23.3,01.4,00.9,0663.0,30.9
2021-06-01T07:44:00Z,00000200,01000000,0001.32,0000.59,0000.28,0000.08,0000.26,0000.02,0000.11,0000.38,0000.12,16.7,23.3,01.4,00.9,0663.0,30.9
2021-06-01T07:45:00Z,00000200,01000000,0000.41,0000.55,0000.28,0000.07,0000.40,0000.24,0000.17,0000.19,0000.05,16.7,23.3,01.3,00.9,0663.0,30.9
2021-06-01T07:46:00Z,00000200,01000000,0000.11,0000.99,0000.20,-000.03,0000.26,-000.01,0000.39,0000.53,0000.50,16.7,23.3,01.3,00.9,0663.0,30.9
2021-06-01T07:47:00Z,00000200,01000000,0000.68,0000.73,0000.44,0000.18,0000.11,0000.45,0000.05,-000.14,0000.11,16.7,23.3,01.3,00.9,0663.0,30.9
2021-06-01T07:48:00Z,00000200,01000000,0000.51,0000.73,0000.25,0000.08,0000.44,0000.45,0000.31,0000.11,0000.03,16.8,23.3,01.3,00.9,0663.0,30.9
2021-06-01T07:49:00Z,00000200,01000000,0000.65,0000.77,0000.40,0000.14,0000.19,0000.13,0000.22,0000.26,0000.33,16.9,23.4,01.3,00.9,0663.0,30.9
2021-06-01T07:50:00Z,00000200,01000000,0000.38,0000.58,0000.35,0000.23,0000.09,0000.01,0000.27,0000.54,-000.00,17.0,23.4,01.2,00.8,0663.0,30.9
2021-06-01T07:51:00Z,00000200,01000000,0000.69,0000.77,0000.33,-000.04,0000.05,0000.09,0000.57,0000.23,0000.24,17.0,23.5,01.1,00.8,0663.0,30.9
2021-06-01T07:52:00Z,00000200,01000000,0001.80,0000.95,0000.50,0000.59,0000.04,0000.20,0000.09,0000.41,0000.08,17.1,23.5,01.2,00.8,0663.0,30.9
2021-06-01T07:53:00Z,00000200,01000000,0000.61,0000.40,0000.27,0000.25,0000.27,0000.10,0000.50,0000.39,0000.78,17.1,23.5,01.3,00.9,0663.0,30.9
2021-06-01T07:54:00Z,00000200,01000000,0000.50,0000.64,0000.46,0000.20,0000.22,0000.29,0000.39,0000.22,0000.04,17.1,23.5,01.4,00.9,0663.0,30.9
2021-06-01T07:55:00Z,00000200,01000000,0001.01,0000.67,0000.30,0000.77,0000.36,0000.26,0000.14,0000.15,0000.29,17.1,23.5,01.3,00.9,0663.0,30.9
2021-06-01T07:56:00Z,00000200,01000000,0000.87,0000.77,0000.25,0000.23,0000.11,0000.18,0000.21,0000.27,0000.10,17.0,23.5,01.2,00.8,0663.0,30.9
2021-06-01T07:57:00Z,00000200,41000000,,,,,,,-000.23,-000.29,-000.49,17.1,23.5,01.2,00.8,0663.0,30.9
2021-06-01T07:58:00Z,00000200,61000000,,,,,,,0000.24,-000.24,-000.01,16.7,23.6,01.1,00.7,0662.0,30.9
2021-06-01T07:59:00Z,00000200,21000000,,,,,,,-000.45,0000.03,-000.26,16.7,23.7,00.9,00.6,0662.0,30.9
